Wind_Speed
28 27 27 26 25 24 24 23 24 23 22 20 18 18 18 18 18 18 18 17 16 15 14 13 12 11 10 8 7 6 5 4 4 3 3 3 4 4 5 6 6 7 8 9 10 10 10 10 10 11 11 11 12 12 13 13 13 14 14 15 15 15 16 16 17 17 18 18 18
28 28 27 27 26 26 25 24 24 24 22 20 19 18 18 18 18 18 17 16 15 14 13 12 11 11 10 9 7 6 5 4 4 3 3 3 3 3 4 5 6 7 8 9 9 9 10 10 10 11 11 11 12 12 13 13 13 14 14 15 15 15 16 16 16 17 17 17 17
27 27 27 27 27 26 26 25 24 23 22 21 20 19 18 18 18 18 17 16 15 14 13 13 12 11 10 9 7 6 5 4 4 3 2 2 2 2 3 5 6 7 8 8 9 9 9 10 10 11 11 11 12 12 13 13 13 13 14 14 14 15 15 15 16 16 16 16 16
26 27 27 27 27 27 26 25 24 23 22 21 20 20 19 18 18 18 17 16 15 14 13 13 12 11 10 9 8 6 5 4 3 3 2 1 1 2 3 5 6 7 7 8 8 8 9 10 10 11 11 11 12 12 13 13 13 13 13 14 14 14 14 15 15 15 16 16 16
28 28 27 27 27 27 26 26 25 24 22 21 21 20 19 18 18 18 18 17 16 15 14 13 12 11 9 8 7 6 5 4 3 3 2 1 1 2 3 4 5 6 7 7 8 8 9 9 10 10 11 11 11 12 12 12 13 13 13 13 13 13 14 14 14 15 15 15 16
27 27 26 26 26 25 25 25 25 24 23 22 21 20 19 18 18 18 18 17 16 15 14 13 11 10 9 8 7 6 5 4 3 3 2 1 1 2 3 4 5 5 6 7 7 8 8 9 9 10 10 11 11 11 12 12 13 13 13 13 13 13 13 14 14 15 15 15 16
25 25 25 24 24 24 24 24 24 23 22 22 21 20 19 19 18 18 18 17 17 15 14 12 11 10 9 8 7 7 6 5 4 3 2 0 1 3 3 4 5 5 6 6 7 7 8 8 9 10 10 10 11 11 11 12 12 13 13 13 13 13 14 14 14 15 15 16 16
25 24 24 23 23 23 23 23 23 23 22 21 21 20 20 19 18 18 18 18 17 15 14 12 11 10 10 9 8 7 6 5 4 3 1 0 1 2 3 4 5 5 5 6 6 7 8 8 9 10 10 10 11 11 11 11 12 13 14 14 14 14 14 14 15 15 16 16 17
25 24 24 23 23 23 23 23 23 22 22 22 21 21 20 19 19 19 18 18 16 15 14 12 12 11 10 9 8 7 6 5 4 3 1 0 1 2 3 4 4 5 5 6 6 7 8 8 9 10 10 10 11 11 12 12 13 14 14 14 15 15 15 15 15 16 16 17 18
26 25 25 24 23 23 23 23 23 22 22 22 21 21 21 20 20 19 18 17 16 15 14 13 12 11 10 9 8 7 6 5 4 3 1 0 1 2 3 4 4 4 5 6 6 7 8 9 9 10 10 11 11 12 12 13 13 14 14 15 15 15 15 15 15 16 17 17 18
27 26 26 25 24 24 23 23 23 23 22 22 21 22 22 21 20 19 18 17 16 15 14 13 12 11 10 9 8 7 6 5 4 2 1 1 1 2 3 4 4 4 5 6 6 7 8 9 10 10 11 11 12 12 13 13 14 14 15 15 16 16 16 16 16 16 16 17 17
27 27 27 26 25 24 24 23 23 23 22 22 22 23 23 22 20 19 18 17 16 15 14 13 12 11 10 9 8 7 6 4 3 2 1 1 1 2 3 3 4 4 5 6 7 8 9 10 10 11 12 12 12 13 13 14 14 15 16 16 16 16 16 16 16 16 16 17 17
27 27 27 27 26 25 24 23 23 22 22 22 23 23 22 21 20 19 18 17 16 15 14 13 11 10 9 9 8 7 5 4 3 2 2 1 1 2 2 3 3 4 5 6 7 8 9 10 11 11 12 13 13 13 14 14 15 16 16 16 16 15 15 15 15 15 16 16 16
27 27 27 27 26 25 24 23 22 22 22 23 23 22 22 21 19 18 18 17 16 14 13 12 11 10 9 8 7 6 5 4 3 2 2 1 1 2 2 3 4 4 5 6 7 8 9 10 11 11 12 13 13 14 14 14 15 15 15 15 14 14 14 14 14 14 15 15 15
26 27 27 27 26 24 23 22 22 22 22 23 22 22 21 20 19 18 17 16 15 14 13 12 11 10 9 8 7 5 4 4 3 2 2 2 1 2 2 3 4 5 5 6 7 8 9 10 11 11 12 13 13 14 14 14 14 14 13 13 13 13 13 13 13 14 14 15 15
26 26 26 26 25 24 23 22 22 22 22 22 22 21 21 20 19 19 18 17 16 15 14 12 11 10 8 7 6 5 4 4 3 2 2 2 2 2 3 3 4 5 5 6 7 8 9 10 11 11 12 12 13 13 12 12 12 11 11 11 12 12 12 13 13 13 14 15 15
26 26 26 26 25 24 23 22 22 22 22 22 22 22 22 21 20 19 19 17 16 15 13 12 11 9 8 7 6 5 4 4 3 3 2 2 2 3 3 4 4 5 5 6 7 8 9 10 10 11 11 11 11 11 11 10 10 10 10 11 11 12 12 12 13 14 14 15 15
26 26 27 26 25 24 23 22 22 22 23 23 23 23 23 22 21 20 19 17 16 14 13 12 10 9 8 7 6 5 5 4 4 3 3 2 2 3 3 4 4 4 5 6 7 8 9 10 10 10 10 10 10 9 9 9 9 9 10 10 11 12 12 13 13 14 14 15 16
27 27 27 26 25 24 23 23 23 23 23 24 23 23 23 22 21 20 18 17 15 14 13 11 10 9 8 7 6 5 5 4 4 3 3 3 3 3 3 4 4 4 5 6 7 8 9 9 9 9 9 8 8 8 8 8 8 9 10 10 11 12 12 13 14 14 15 16 17
28 27 27 26 26 25 24 23 23 24 24 24 23 22 22 21 20 19 18 16 15 14 13 11 9 8 8 7 6 6 5 4 4 3 3 3 3 3 3 3 4 4 5 5 7 8 8 8 8 8 7 7 7 7 7 8 8 9 10 10 11 12 13 14 15 16 16 17 17
28 28 27 27 26 25 24 24 24 24 24 23 22 22 21 19 18 17 16 16 15 14 12 10 9 8 8 8 7 6 5 5 4 4 4 3 3 3 3 3 4 4 5 6 7 7 8 8 7 7 7 7 7 7 7 8 8 9 10 11 12 13 14 15 16 17 17 17 17
28 28 27 26 26 25 24 24 24 24 24 23 22 21 20 19 17 16 16 15 15 12 10 9 9 9 9 8 7 6 6 5 5 4 4 3 3 3 3 3 4 5 5 6 8 9 8 8 8 8 8 7 7 7 7 8 8 9 10 11 13 14 15 16 16 17 17 17 17
28 28 27 26 26 25 25 25 25 24 24 22 21 21 19 18 17 16 16 15 13 11 9 9 9 9 9 8 7 6 6 5 5 4 4 3 3 3 3 3 4 5 7 9 11 11 11 10 10 9 9 8 7 7 8 8 9 10 11 12 14 14 15 16 16 16 16 16 16
28 28 27 26 25 25 26 26 25 24 23 22 21 20 19 18 17 17 16 14 12 11 10 10 10 9 9 8 7 6 6 5 5 4 4 3 3 3 3 4 4 6 9 12 14 14 14 13 12 11 10 9 8 8 9 9 10 11 12 13 14 15 15 15 16 16 16 16 15
28 28 27 26 26 26 26 26 25 24 23 22 21 20 19 18 18 17 16 14 12 11 11 10 10 9 9 8 7 6 6 6 5 5 4 3 3 3 3 4 5 8 11 12 14 15 15 14 14 13 11 10 9 9 10 10 11 11 12 13 14 15 15 16 16 15 15 15 15
28 28 27 27 27 27 26 26 25 24 23 22 21 20 19 19 18 17 15 14 13 12 12 11 10 10 9 8 7 7 6 6 5 5 4 3 2 2 3 5 7 9 10 11 12 13 14 13 13 13 12 11 10 10 10 11 11 12 12 13 14 14 15 16 16 15 15 15 14
29 28 28 27 27 27 26 25 24 23 23 22 21 21 20 19 18 17 15 14 14 13 12 11 10 10 9 8 8 7 7 6 6 5 4 3 2 2 3 4 8 10 11 10 10 11 11 11 11 11 11 11 10 10 11 11 12 12 12 12 13 14 15 15 15 15 15 15 14
29 28 28 27 27 26 26 25 24 23 23 22 22 21 20 19 18 17 16 15 14 13 12 11 11 10 9 9 8 8 7 7 6 5 5 4 3 3 3 5 8 10 11 10 9 8 9 9 8 8 9 9 10 10 11 11 12 12 12 12 12 13 14 14 15 15 15 15 14
30 29 28 27 27 26 26 25 24 23 23 23 22 21 20 19 18 17 16 15 14 14 13 12 11 10 9 9 9 8 7 7 6 6 5 4 3 3 4 6 7 9 9 8 7 7 7 6 5 6 6 8 9 10 10 11 11 11 11 12 12 13 13 14 14 14 14 15 14
30 29 28 28 27 26 25 25 24 24 23 23 22 21 20 19 18 17 16 15 15 14 13 12 11 11 10 9 9 8 8 7 7 6 5 4 4 4 4 5 6 7 8 7 6 5 5 4 4 4 5 7 8 9 10 10 10 10 10 11 12 12 13 13 14 14 14 14 14
29 29 28 28 27 27 26 25 24 24 24 23 22 21 20 19 18 17 16 16 15 14 13 12 12 11 10 9 9 8 8 8 7 6 6 5 4 4 4 4 5 7 8 8 7 6 5 3 3 3 4 6 8 9 10 10 9 9 10 10 11 12 12 13 13 13 14 14 14
29 28 28 27 27 27 26 25 25 25 24 23 22 21 20 18 17 17 16 15 15 14 13 12 11 11 10 10 9 9 8 8 7 7 6 6 5 5 4 2 4 6 8 9 9 8 6 3 2 3 5 8 9 10 9 8 8 8 9 10 10 11 12 12 12 13 13 14 14
28 27 27 27 28 27 27 26 26 25 25 24 22 21 19 18 17 16 16 15 15 14 13 12 12 11 10 10 9 9 9 8 8 7 7 6 6 6 5 4 5 6 7 8 8 8 6 3 2 4 6 9 9 9 7 6 6 7 8 9 10 10 11 12 12 13 13 13 13
28 27 26 27 27 27 27 27 27 27 26 24 23 21 19 18 17 16 16 15 14 13 12 12 11 11 10 10 9 9 9 9 8 7 7 7 7 6 6 6 6 6 7 7 7 6 4 2 3 5 7 9 9 8 6 6 6 7 8 9 10 10 11 12 12 12 12 12 12
29 28 27 26 27 27 27 28 28 27 26 25 23 21 20 18 17 17 16 15 14 13 12 11 11 10 10 10 9 9 9 9 8 8 8 7 7 7 6 6 6 7 7 7 6 3 1 1 4 6 8 9 8 7 6 6 6 7 8 9 10 10 11 11 12 12 12 11 11
30 29 28 28 27 28 28 29 29 28 27 25 24 21 19 18 17 16 16 15 14 13 12 11 11 10 10 10 10 9 9 9 8 8 8 8 8 7 6 7 6 6 6 6 4 2 1 2 5 7 8 9 8 7 7 6 7 7 8 9 10 10 11 11 11 11 11 11 11
31 31 31 30 28 28 29 30 29 28 27 26 24 22 19 17 16 16 15 15 14 13 12 12 11 11 11 10 10 9 9 9 9 9 8 8 8 7 7 7 7 6 5 4 3 1 1 4 6 8 9 9 9 8 7 7 7 7 8 9 9 10 10 10 10 10 11 11 11
31 32 32 31 29 29 30 30 29 29 28 26 24 21 18 17 16 15 15 14 14 13 12 12 12 12 11 11 10 9 9 8 8 9 8 8 8 8 7 6 6 5 4 3 2 0 2 5 7 9 9 9 9 8 7 7 7 7 8 9 9 9 10 10 10 11 11 11 11
31 32 31 30 29 29 29 29 29 29 28 26 22 19 17 16 15 15 15 14 13 12 12 12 12 12 12 11 10 9 8 8 8 9 9 8 8 8 8 6 6 4 3 3 2 2 3 5 7 8 9 9 9 8 7 6 7 7 8 9 9 10 10 10 11 11 11 12 12
30 30 29 29 29 28 28 27 28 28 27 24 21 18 16 16 15 15 15 14 12 12 12 12 12 12 11 11 9 8 7 7 8 8 8 8 9 9 9 7 6 4 4 4 3 2 2 4 5 7 8 9 9 7 6 6 6 7 8 9 9 10 11 11 11 11 12 12 12
28 28 27 27 27 26 26 26 27 27 25 22 19 17 16 16 16 15 15 13 12 11 11 11 11 11 11 10 9 8 7 7 7 8 8 8 8 8 8 7 7 5 5 5 4 3 1 2 4 6 7 9 8 7 5 5 6 7 8 9 9 10 11 11 11 11 11 12 12
Wind_Direction
142 142 141 141 140 140 140 142 143 143 142 140 140 140 140 140 139 138 137 136 133 129 126 123 121 120 121 121 118 115 111 104 91 71 48 27 12 359 348 340 334 330 326 323 320 318 316 313 310 306 302 297 294 291 289 288 288 288 288 288 288 288 288 289 288 288 288 287 286
141 141 141 142 142 141 141 141 142 142 141 141 141 141 140 139 136 135 135 135 134 131 127 124 123 124 124 125 125 122 118 110 99 79 57 35 12 356 345 337 331 326 324 321 319 316 314 311 309 305 301 296 293 290 289 288 289 289 290 290 290 291 291 291 291 291 290 289 288
145 146 145 145 143 142 141 141 142 141 140 139 139 139 138 137 135 135 136 138 137 136 132 128 128 128 128 129 129 127 123 116 106 93 76 51 19 354 343 336 329 324 321 318 316 314 311 308 305 302 298 294 292 290 290 290 290 291 291 292 293 293 294 293 293 293 293 292 291
153 152 151 148 146 144 143 143 143 141 140 138 138 138 137 136 135 136 138 140 139 138 136 134 133 133 133 132 132 131 128 123 116 108 99 76 32 355 339 333 328 323 320 317 313 311 308 305 303 299 295 292 291 290 290 291 292 293 293 294 295 295 296 296 296 296 296 295 294
153 153 153 152 150 147 146 145 144 143 141 139 139 138 138 138 137 137 138 138 139 139 139 138 137 137 138 138 137 135 134 131 127 118 107 94 36 342 333 329 325 321 318 315 311 307 305 303 300 297 293 291 290 290 291 292 294 295 296 296 297 298 298 299 299 299 299 298 298
152 153 153 153 151 149 147 146 146 144 142 141 141 140 140 140 139 138 138 139 140 141 141 141 141 141 141 142 142 141 141 140 135 126 117 110 356 336 333 328 322 317 314 312 309 305 303 301 299 295 292 291 290 290 292 294 296 297 298 299 299 300 301 301 302 302 302 302 301
151 152 153 153 152 149 148 147 147 145 144 143 143 143 144 143 142 142 142 142 142 143 145 146 145 144 144 145 146 146 145 144 141 137 140 159 325 333 332 328 322 317 312 309 306 303 301 298 296 293 292 291 291 291 293 295 298 300 301 302 302 302 302 303 303 303 303 303 304
152 153 154 155 153 151 149 149 148 147 146 146 147 147 148 148 147 146 145 144 145 147 149 149 149 149 148 148 148 147 146 144 145 146 149 197 332 333 330 326 323 317 312 307 303 300 298 295 292 291 291 291 291 292 294 297 299 300 302 302 302 302 302 302 302 302 303 303 304
153 155 157 157 155 154 152 152 151 149 148 149 150 152 152 152 150 148 146 146 149 151 153 152 152 152 151 150 148 147 147 147 146 148 149 276 317 319 320 323 321 316 311 307 302 298 295 293 290 289 289 289 290 292 294 297 298 299 300 300 301 300 300 299 300 301 302 302 303
155 158 159 160 159 157 156 155 154 153 151 152 154 155 154 153 151 149 148 149 151 152 152 153 154 153 152 150 149 149 149 150 151 154 159 215 293 304 311 316 317 313 309 307 303 297 294 291 288 287 287 288 290 292 294 296 298 298 298 298 298 298 298 298 300 302 303 303 303
158 160 162 162 162 161 159 158 156 155 154 154 154 153 151 150 150 150 151 151 150 150 151 153 153 152 151 150 150 151 152 155 159 164 176 223 275 299 308 313 314 311 308 306 301 296 292 290 288 287 287 288 290 292 294 296 296 297 296 296 297 297 298 299 302 304 305 304 304
159 162 164 165 165 164 162 159 157 156 155 153 151 149 148 149 150 151 151 150 149 150 151 153 152 151 150 151 152 155 158 161 165 172 190 225 266 295 307 311 312 310 307 304 299 295 291 289 287 288 289 290 292 293 295 296 296 296 295 295 296 297 299 301 303 304 304 304 302
161 163 165 166 167 165 162 159 157 156 154 151 148 147 148 150 151 152 151 150 149 150 151 153 153 151 151 152 155 160 164 168 170 179 195 223 257 288 304 306 309 308 306 301 296 293 290 288 287 288 290 292 293 295 295 296 296 295 295 295 297 298 299 301 302 302 302 301 299
163 164 165 166 166 164 161 158 156 154 152 150 148 149 150 151 152 153 152 151 151 151 152 154 155 156 157 159 163 168 170 172 173 179 194 219 257 285 296 301 306 307 305 301 296 291 287 286 287 289 291 293 294 295 296 295 295 295 296 297 299 301 302 302 302 301 299 299 297
164 164 165 165 163 161 158 157 155 154 151 150 150 151 152 153 153 153 153 152 152 153 153 153 156 160 164 168 171 171 171 170 173 181 193 218 257 281 293 298 302 303 301 298 293 288 285 285 287 289 292 294 295 296 296 296 296 297 299 302 305 307 307 307 305 302 301 300 300
164 164 163 163 161 158 156 156 156 154 152 151 152 153 153 153 153 154 154 153 154 155 154 153 155 160 168 173 172 170 168 170 174 182 196 222 255 278 290 295 299 299 296 292 288 286 284 285 287 289 292 293 295 296 297 298 299 301 304 308 310 311 311 310 308 307 306 306 306
165 164 163 163 161 158 156 157 157 156 154 152 152 153 153 154 155 156 156 156 157 156 155 154 157 161 167 172 173 171 170 172 178 188 202 225 253 274 285 291 294 294 292 287 285 285 285 286 288 290 291 293 294 296 299 302 305 308 310 311 312 312 311 311 311 311 311 311 311
166 165 164 163 161 158 157 158 157 156 153 152 151 152 155 156 157 158 158 159 158 157 157 159 161 164 166 170 175 177 177 179 185 195 210 230 252 270 280 287 288 289 287 282 282 283 284 286 288 289 290 290 292 295 300 305 311 314 313 313 312 312 311 312 313 314 314 314 313
168 166 164 163 160 158 158 158 156 154 151 150 150 153 157 159 161 161 160 160 159 160 161 164 166 167 168 171 177 183 185 185 191 201 214 231 252 267 275 281 283 283 282 278 278 280 282 283 285 285 285 285 287 292 298 305 311 314 314 314 313 313 313 313 314 315 314 313 311
168 166 164 163 159 158 158 157 155 152 150 150 151 154 157 160 162 163 162 162 164 167 168 169 168 168 169 172 176 181 186 189 193 201 212 228 243 259 268 275 278 277 274 273 274 275 276 276 276 276 276 278 284 291 300 306 310 312 314 315 315 314 314 314 314 313 312 310 308
168 166 164 161 158 157 157 156 153 151 150 151 153 155 157 159 161 164 166 168 172 175 175 171 168 168 170 172 174 177 184 192 197 203 210 221 233 249 263 270 272 268 265 267 267 265 264 262 262 264 268 274 283 292 300 307 311 313 314 315 315 314 314 313 312 310 308 305 304
167 166 163 159 157 157 155 153 152 152 153 154 155 156 158 159 161 163 167 171 176 178 176 170 167 169 171 173 175 179 187 197 201 204 208 216 230 248 263 272 268 260 257 257 252 247 245 245 248 254 262 271 280 289 298 306 311 313 314 315 314 313 313 312 310 307 304 301 299
166 164 161 157 156 155 153 152 152 154 155 155 157 158 158 158 160 162 166 170 174 175 172 168 167 168 171 174 177 183 190 196 198 198 203 212 229 247 263 270 264 252 243 239 237 237 238 239 243 248 255 264 274 284 294 303 309 313 314 314 313 313 312 310 307 304 301 299 297
164 162 159 155 154 152 151 152 153 155 156 156 158 158 158 158 161 162 165 168 170 169 167 166 167 168 171 175 179 184 189 193 194 195 200 215 233 248 255 258 255 240 234 235 235 236 237 238 241 245 250 257 268 280 289 298 306 310 312 313 313 312 310 307 304 301 299 297 297
162 160 157 153 152 152 152 153 155 157 157 158 159 159 158 160 161 162 164 165 166 166 165 164 166 169 173 177 181 185 188 191 193 194 201 217 237 249 250 245 238 232 232 236 237 236 235 235 239 243 248 255 266 278 287 296 302 308 311 312 312 310 308 305 303 300 298 297 297
161 158 155 152 152 153 154 156 158 159 159 159 159 159 159 161 161 162 162 163 163 163 163 163 165 169 173 177 182 186 189 190 192 195 202 217 235 244 242 234 227 227 231 235 236 235 234 235 238 242 247 255 266 278 289 297 302 306 309 310 309 308 306 303 301 300 299 298 298
160 156 153 153 154 155 157 158 159 159 159 159 159 159 160 160 161 160 160 160 161 161 162 163 166 171 175 178 183 186 189 190 193 199 207 217 224 225 220 216 216 220 227 237 239 237 235 238 241 244 249 257 268 281 292 300 304 307 309 308 307 305 303 301 300 300 300 300 300
159 155 153 154 155 157 158 159 159 159 159 159 159 159 160 160 159 159 159 159 160 160 161 163 167 172 176 178 183 186 188 190 194 199 205 211 212 208 206 210 212 218 227 236 236 237 241 246 247 251 256 265 276 287 296 303 307 309 309 307 305 303 301 299 299 299 300 301 301
157 155 154 156 157 158 159 159 159 159 159 159 159 159 159 159 158 157 158 158 159 160 162 164 168 171 175 178 182 185 187 189 191 193 194 195 191 193 202 212 215 220 226 230 230 235 244 250 253 260 268 275 285 294 302 307 309 309 307 305 303 302 300 299 299 299 300 301 301
157 156 156 157 157 158 158 159 159 158 158 158 158 158 158 158 157 157 158 158 160 161 163 165 167 170 174 178 181 183 185 186 186 184 181 179 174 179 197 216 221 221 216 210 215 226 237 246 255 268 281 291 298 307 313 315 313 310 306 304 302 300 300 299 300 301 301 301 301
159 158 158 158 157 157 158 159 158 157 157 157 157 157 157 156 157 158 159 159 160 162 163 165 167 170 174 177 179 181 182 182 180 175 172 167 161 165 185 219 223 213 199 186 188 201 216 224 241 275 300 312 320 325 328 326 320 312 306 303 302 301 301 302 302 303 303 303 303
159 159 158 157 156 156 157 157 156 156 156 156 156 157 157 157 158 158 159 160 160 161 162 164 167 171 174 177 178 179 179 177 175 172 168 163 156 153 157 182 201 195 185 176 179 188 197 206 238 298 317 327 334 339 339 331 320 311 306 304 303 303 304 305 305 306 306 306 307
159 158 157 156 156 155 155 155 155 155 156 156 156 157 157 158 157 158 158 160 160 161 162 165 169 172 175 177 178 178 176 174 172 170 167 161 154 149 143 143 173 181 176 172 178 184 192 211 268 315 331 338 343 347 343 330 317 311 308 306 306 305 306 307 308 309 309 310 310
158 157 155 155 154 154 155 155 156 156 156 156 156 156 157 157 157 157 158 159 160 160 162 166 169 172 174 174 174 175 174 173 171 169 164 159 155 150 146 145 167 178 175 168 173 179 191 232 305 331 339 344 350 351 344 331 321 315 312 309 308 307 307 308 309 310 311 312 312
157 155 153 153 153 154 155 156 156 156 156 155 155 156 156 157 157 158 158 159 158 159 161 165 167 169 170 171 171 172 172 172 172 169 165 161 159 154 148 147 166 177 172 160 161 166 182 317 336 337 339 343 349 350 343 334 326 320 316 313 310 308 308 309 309 310 312 312 313
157 155 153 153 154 155 156 157 157 156 155 155 155 155 156 157 157 158 158 158 157 157 160 164 167 169 170 170 171 172 172 170 170 171 171 169 165 160 153 150 166 176 171 153 148 139 35 347 339 334 333 339 346 347 343 336 328 322 317 313 311 309 310 311 311 311 312 313 314
159 157 155 155 155 156 157 157 156 155 154 154 154 154 155 156 157 158 158 158 157 158 162 165 168 170 171 170 169 171 172 172 171 173 176 177 175 172 165 158 164 173 172 157 146 127 348 332 328 326 328 335 343 346 344 336 328 321 316 313 310 310 310 312 312 312 312 313 314
161 160 158 157 157 158 158 157 156 155 155 154 154 155 155 156 157 159 159 159 159 161 165 168 170 171 171 169 170 171 173 174 175 176 179 183 184 182 175 169 170 179 192 189 173 206 318 320 320 318 321 331 341 345 343 335 326 319 315 311 310 310 311 312 313 313 312 312 312
162 161 160 158 158 158 158 157 157 156 155 154 154 155 157 158 159 160 161 160 161 164 167 169 171 171 170 170 171 172 174 177 180 182 184 186 189 187 183 180 181 199 234 246 237 259 300 311 318 318 320 330 340 344 341 332 323 317 314 313 312 312 312 313 314 313 312 311 310
161 161 160 160 160 159 158 157 158 158 157 156 156 157 160 161 160 160 160 160 161 163 165 167 168 168 169 169 169 170 173 178 182 185 186 187 191 192 190 188 191 217 252 253 234 229 279 304 315 320 324 333 342 345 343 332 323 318 316 316 315 315 314 314 314 313 311 310 308
161 160 160 161 160 160 159 158 158 158 158 157 158 160 161 160 158 157 158 158 159 161 163 164 164 166 168 169 167 167 171 175 178 181 184 186 192 196 198 199 202 219 237 232 210 199 241 296 315 325 332 339 347 351 348 335 326 320 317 316 317 316 315 314 312 311 310 309 308
Height
754 756 758 759 761 763 765 767 769 771 773 774 777 779 781 783 784 786 787 789 790 792 793 794 795 797 798 799 801 802 803 804 805 805 806 806 807 807 808 808 808 808 808 808 808 807 807 807 806 806 805 805 804 804 803 803 802 802 801 801 800 799 799 798 798 797 796 796 795
754 755 757 759 760 762 764 766 768 770 772 774 776 778 780 782 784 785 787 788 789 791 792 794 795 797 798 799 800 801 802 803 804 804 805 805 806 806 807 807 807 807 807 807 807 806 806 806 805 805 804 804 803 803 803 802 802 801 800 800 799 799 798 798 797 796 796 795 794
753 755 757 758 760 762 764 766 768 769 771 773 776 778 780 782 783 785 786 788 789 790 792 793 795 796 798 799 800 801 802 803 803 804 804 805 805 805 806 806 806 806 806 806 806 805 805 805 804 804 803 803 803 802 802 801 801 801 800 799 799 798 798 797 796 795 795 794 793
753 754 756 758 759 760 762 764 767 769 771 773 775 778 779 781 783 784 786 787 789 790 792 793 795 796 798 798 799 800 801 802 802 803 803 804 804 804 804 804 805 805 805 805 805 804 804 804 803 803 803 802 802 801 801 801 800 800 799 799 798 798 797 796 796 795 794 793 793
752 753 755 757 758 760 762 764 766 768 770 773 775 777 779 781 782 784 785 787 788 790 792 793 794 796 797 798 799 800 800 801 801 802 802 803 803 803 803 803 804 804 804 804 804 803 803 803 803 802 802 801 801 801 800 800 800 799 799 798 798 797 796 796 795 794 794 793 792
751 753 755 757 759 760 762 764 766 768 770 772 774 776 778 780 782 783 785 787 788 789 791 793 794 795 797 798 798 799 800 800 800 801 801 801 802 802 802 803 803 803 803 803 803 803 802 802 801 801 801 801 800 800 800 799 799 798 798 798 797 796 796 795 795 794 793 793 792
752 754 756 758 759 761 762 764 766 768 769 771 773 776 778 779 781 783 784 786 788 789 791 792 794 795 796 797 798 798 799 799 799 800 800 800 800 801 801 801 802 802 802 802 802 801 801 801 801 800 800 800 799 799 799 799 798 798 797 797 796 796 795 795 794 793 793 792 791
752 754 756 758 760 761 763 764 766 767 769 771 773 775 777 779 781 782 784 785 787 789 790 792 793 794 795 796 797 798 798 798 798 798 799 799 799 799 800 800 800 800 800 800 800 800 800 800 799 799 799 799 798 798 798 798 798 797 797 796 795 795 795 794 794 793 792 792 791
752 754 756 759 760 761 763 764 766 767 768 770 773 775 777 779 780 782 783 785 787 788 790 791 793 793 794 795 796 796 797 797 797 797 798 798 798 798 799 799 799 799 799 799 799 799 799 799 798 798 798 798 798 798 797 797 797 796 796 795 795 794 794 794 793 793 792 791 790
751 754 756 758 760 761 763 764 765 767 768 770 772 774 776 778 780 781 783 785 786 788 789 791 792 793 793 794 795 795 795 796 796 796 796 797 797 798 798 798 798 798 798 798 798 798 798 798 798 797 797 797 797 797 797 796 796 796 795 795 794 794 793 793 792 792 791 790 790
750 753 755 757 759 761 763 764 765 766 768 769 772 773 775 777 779 781 782 784 786 787 789 790 791 792 793 793 793 794 794 794 795 795 795 796 796 797 797 797 797 797 797 797 797 797 797 797 797 796 796 796 796 796 796 795 795 795 794 794 793 793 792 792 792 791 790 790 789
749 752 754 756 759 760 762 763 764 766 767 769 771 773 775 777 778 780 782 783 785 787 788 789 790 791 792 792 793 793 793 793 793 794 794 795 795 795 796 796 796 796 796 796 796 796 796 796 796 795 795 795 795 795 795 794 794 794 793 793 792 792 791 791 791 790 790 789 789
749 751 754 756 758 760 761 763 764 765 767 768 770 772 774 776 778 779 781 783 784 786 787 788 789 789 790 791 791 792 792 792 793 793 793 794 794 794 794 795 795 795 795 795 795 795 795 795 795 794 794 794 794 794 794 793 793 793 792 792 791 791 791 790 790 790 790 789 789
748 750 753 755 757 759 760 762 763 764 766 768 769 771 773 775 777 778 780 782 783 785 786 787 788 788 789 790 790 791 791 791 791 792 792 793 793 793 793 794 794 794 794 794 794 794 794 794 794 794 793 793 793 793 793 793 792 792 792 791 791 790 790 790 789 789 789 788 788
748 750 752 754 756 758 759 761 762 764 765 767 769 771 773 774 776 778 779 781 783 783 785 786 787 788 788 788 789 789 790 790 790 791 791 792 792 792 793 793 793 793 793 793 793 793 793 793 793 793 793 792 792 792 792 792 792 791 791 790 790 789 789 789 789 788 788 788 787
747 749 751 753 755 757 759 760 762 763 765 766 768 770 772 773 775 777 778 780 781 783 784 785 786 786 787 788 788 788 789 789 789 790 790 791 791 791 791 792 792 792 792 792 792 792 792 792 792 792 792 792 791 791 791 791 791 790 790 790 789 789 789 788 788 788 787 787 786
746 748 750 752 754 756 758 759 761 763 764 766 768 769 771 773 774 776 778 779 780 781 783 784 785 785 786 786 787 787 788 788 788 789 789 789 790 790 790 790 791 791 791 791 791 791 791 791 791 791 791 791 791 791 791 790 790 790 789 789 789 788 788 788 788 787 787 786 786
745 747 749 751 753 755 757 758 760 762 764 765 767 768 770 771 773 775 776 778 779 780 782 783 783 784 785 785 786 786 787 787 787 788 788 788 788 788 789 789 789 790 790 790 790 790 790 790 790 790 790 790 790 790 790 789 789 789 789 789 788 788 788 788 787 787 786 786 785
744 746 749 750 752 754 756 758 759 761 763 764 766 767 769 770 772 774 775 777 778 779 780 781 783 783 784 784 785 785 785 786 786 787 787 787 787 787 788 788 788 788 789 789 789 789 789 789 789 790 790 790 789 789 789 789 789 789 788 788 788 788 788 787 787 786 786 785 785
743 745 747 749 751 753 754 757 759 760 762 764 765 767 768 770 771 773 774 776 777 778 779 780 781 782 783 783 784 784 784 784 785 785 786 786 786 786 787 787 787 788 788 788 788 788 788 789 789 789 789 789 788 788 788 788 788 788 788 788 788 787 787 787 786 786 785 785 785
742 744 746 748 750 752 754 756 758 759 761 763 764 766 767 769 770 772 773 775 776 777 778 779 780 781 782 782 783 783 783 784 784 784 784 784 785 785 785 785 786 786 787 787 788 788 788 788 788 788 788 788 788 788 788 788 788 788 788 788 787 787 787 786 786 785 785 785 784
741 744 745 747 749 751 753 755 757 758 760 762 764 765 767 768 770 771 773 773 774 776 777 778 779 780 781 781 782 782 783 783 783 783 783 783 783 784 784 784 785 785 786 786 786 786 787 787 787 787 787 787 788 788 788 788 787 787 787 787 787 786 786 786 785 785 784 784 783
740 743 744 746 748 750 752 754 756 758 759 761 763 764 766 767 769 770 771 772 773 775 776 777 778 778 779 780 780 781 782 782 782 782 782 782 783 783 783 783 784 784 784 785 784 784 785 785 786 786 786 787 787 787 787 787 787 787 787 786 786 786 785 785 785 784 783 783 782
740 742 744 745 747 749 751 753 754 757 758 760 761 763 765 766 768 769 770 771 773 774 775 776 777 777 778 779 779 780 780 781 781 781 781 781 781 782 782 782 783 783 783 782 783 783 784 784 784 785 785 786 786 786 786 786 786 786 786 786 785 785 785 784 783 783 783 782 781
739 741 743 744 746 748 749 751 754 755 757 759 760 762 764 765 767 768 769 770 772 773 774 775 775 776 777 778 778 779 779 780 780 780 780 780 780 781 781 781 782 781 781 781 782 782 783 783 783 784 784 785 785 785 785 786 786 785 785 785 784 784 783 783 783 782 782 781 780
738 740 741 743 745 747 748 750 752 754 756 758 759 761 763 764 765 767 768 769 771 772 773 774 774 775 776 777 777 778 778 779 779 779 779 779 780 780 780 780 780 780 779 780 780 781 781 782 783 783 783 784 784 785 785 785 785 785 784 784 784 783 783 782 781 781 781 780 780
737 739 740 742 744 745 747 749 751 753 754 756 758 760 761 763 764 766 767 768 770 771 772 773 773 774 775 776 776 777 778 778 778 778 778 778 779 779 779 779 778 777 778 779 780 780 780 781 782 782 783 783 784 784 784 784 784 784 784 783 783 782 782 781 781 780 780 779 779
736 738 739 741 743 744 746 748 750 752 754 755 757 759 760 762 763 765 766 768 769 770 771 772 772 773 773 775 775 776 777 777 777 777 778 778 778 778 778 778 777 776 777 778 779 779 780 780 781 781 782 783 783 783 783 783 783 783 783 782 782 782 781 780 780 779 779 778 778
735 737 738 740 741 743 745 747 749 751 752 754 756 758 759 761 762 764 765 766 768 768 769 770 771 772 773 774 775 775 776 776 776 777 777 777 777 778 777 777 776 775 776 778 778 778 779 779 780 780 781 782 782 783 783 782 782 782 782 781 781 781 780 780 779 779 778 778 777
734 736 737 739 740 742 744 746 748 749 751 753 755 757 758 760 761 763 764 765 766 767 768 769 770 771 772 773 773 774 775 775 775 776 776 777 777 777 776 776 775 774 775 777 778 778 778 779 779 780 780 781 781 782 782 782 781 781 781 781 780 780 779 779 778 778 778 777 777
734 735 736 737 739 741 743 744 746 748 750 752 754 755 757 759 760 762 763 764 765 766 767 768 769 770 771 772 773 773 774 774 775 775 775 776 776 776 776 775 774 774 774 776 777 778 778 778 778 779 779 780 780 781 781 781 781 780 780 780 780 779 779 778 778 778 777 776 776
733 734 735 736 738 739 741 743 745 747 749 751 753 754 756 758 759 760 762 763 764 765 766 767 768 769 770 771 772 773 773 774 774 774 775 775 776 776 775 775 773 773 774 776 777 777 777 778 778 778 779 779 780 780 780 780 780 780 780 779 779 779 778 778 777 777 776 776 775
732 733 734 736 737 739 740 742 744 745 747 749 751 753 755 757 758 759 761 762 763 764 765 766 768 768 770 771 771 772 773 773 773 773 774 774 775 775 775 774 773 773 774 776 776 777 777 777 778 778 778 779 779 779 779 779 779 779 779 779 778 778 778 777 777 776 776 775 775
731 732 734 735 736 738 739 741 742 744 746 748 750 752 754 756 757 759 760 761 762 763 764 765 767 768 769 769 770 771 771 772 772 773 773 774 775 775 775 774 773 772 774 775 776 776 776 777 777 777 778 778 778 778 779 779 779 778 778 778 778 777 777 776 776 775 775 775 774
730 731 732 734 735 737 739 740 741 743 745 747 749 751 753 755 756 758 759 760 761 762 764 765 766 767 768 768 769 770 770 771 771 772 773 773 774 775 774 774 772 772 773 775 775 775 775 776 776 777 777 777 778 778 778 778 778 778 778 777 777 777 776 776 775 775 775 774 774
729 729 731 733 734 736 737 739 740 742 744 746 748 750 753 754 755 756 758 759 760 761 763 764 765 766 767 768 768 769 769 770 770 771 772 773 773 774 774 774 772 772 773 774 775 775 775 775 775 776 776 776 777 777 777 777 777 777 777 777 776 776 776 775 775 774 774 773 773
728 728 729 731 733 735 736 738 739 741 743 745 747 749 752 753 755 756 757 758 759 760 762 763 764 765 766 767 767 768 768 769 769 770 771 772 772 773 774 774 772 771 772 774 774 774 774 774 775 775 775 775 776 776 776 777 777 777 777 776 776 775 775 775 774 774 773 773 773
727 727 729 730 732 734 735 737 738 740 742 744 747 749 751 752 754 755 756 757 758 759 761 762 763 764 765 765 766 767 767 768 768 769 770 771 772 773 773 774 773 772 771 773 773 773 773 773 774 774 774 774 775 775 776 776 776 776 776 776 775 775 774 774 773 773 773 772 772
726 727 728 730 731 733 734 736 738 739 741 744 746 749 750 752 753 754 755 756 757 759 760 761 762 763 764 764 765 766 766 767 768 768 769 770 771 772 773 773 773 772 771 771 772 773 773 773 773 773 774 774 774 775 775 776 776 776 775 775 775 774 774 773 773 773 772 772 772
725 726 728 729 731 733 734 736 737 739 741 743 746 748 749 751 752 753 754 755 756 758 759 760 761 762 763 764 764 765 765 766 767 768 768 769 770 771 771 772 772 772 771 771 771 772 772 773 773 773 773 773 774 774 775 775 775 775 775 775 774 774 773 773 773 772 772 771 771
724 726 728 729 731 733 734 736 737 739 741 743 745 747 749 750 751 752 753 754 756 757 758 759 760 761 762 763 763 764 765 766 767 767 768 768 769 770 770 771 771 771 771 770 771 771 772 772 773 773 773 773 773 774 774 775 775 775 775 774 774 773 773 773 772 772 771 770 770